Vorticity
nan nan nan nan nan nan nan nan nan nan nan nan nan nan nan nan nan nan nan nan nan nan
nan 14 11 12 14 11 8 16 21 10 10 18 16 9 5 8 9 9 9 10 6 nan
nan 12 12 13 9 10 10 14 26 28 18 5 4 14 9 7 9 8 6 11 10 nan
nan 10 11 10 10 9 9 10 16 37 31 23 12 6 18 17 11 8 7 7 10 nan
nan 10 10 9 9 11 11 9 12 13 23 26 23 11 9 22 26 12 9 8 7 nan
nan 9 9 11 9 11 11 8 8 9 12 10 15 20 13 11 9 26 26 7 10 nan
nan 10 8 9 12 10 8 10 13 7 7 9 10 14 10 10 13 11 23 30 11 nan
nan 12 12 10 7 7 10 11 8 9 8 7 10 9 10 15 17 10 7 25 29 nan
nan 8 8 9 12 12 8 10 10 14 8 7 3 4 15 16 13 13 16 8 27 nan
nan 10 10 9 7 9 11 11 8 9 10 11 4 6 11 15 13 10 11 13 15 nan
nan 9 9 10 10 10 10 11 10 8 11 12 4 3 12 16 14 9 8 8 10 nan
nan 8 9 8 11 12 10 9 10 9 8 9 6 3 15 18 12 10 10 9 7 nan
nan 9 7 8 11 13 11 11 9 8 6 8 7 7 11 14 11 10 10 9 6 nan
nan nan nan nan nan nan nan nan nan nan nan nan nan nan nan nan nan nan nan nan nan nan
CAPE
14 5 2 0 2 4 3 38 313 747 825 552 278 104 15 14 40 45 14 1 0 0
15 18 2 4 3 3 4 4 9 3 0 289 340 215 21 37 24 23 8 1 0 0
17 15 11 2 5 3 3 1 1 4 31 4 378 226 75 77 55 23 4 2 5 0
12 10 7 7 7 6 4 2 5 0 0 0 0 167 85 80 62 37 12 0 0 0
5 6 5 5 5 7 4 3 4 5 4 0 0 2 1 0 8 31 45 2 0 0
12 6 5 6 4 3 3 3 4 3 4 6 3 2 0 1 0 3 44 15 0 0
14 7 9 6 5 4 3 3 2 5 4 2 2 2 2 0 1 1 1 23 0 0
4 5 6 5 4 5 3 3 1 2 2 2 1 0 0 1 2 1 0 0 2 0
0 0 1 1 1 2 3 2 0 1 1 2 2 0 0 0 3 4 1 0 1 0
0 0 0 1 1 1 2 2 1 0 1 1 3 0 0 0 1 3 4 2 2 0
0 0 0 0 0 3 1 1 0 0 2 2 4 0 0 0 1 0 1 5 3 3
0 0 0 0 0 2 2 0 0 0 0 1 0 0 0 0 2 2 1 1 5 3
0 0 0 0 0 1 1 1 0 0 0 0 0 0 0 0 4 1 1 1 1 0
2 0 0 0 1 0 0 0 0 0 0 0 0 0 3 0 0 1 0 0 0 0